Location: Peterborough
(44.3091°N, 78.3197°W)
Time: 04:11:19
(UTC-04:00)

Tiros 1 despin weight - Pass Details

Date: 30 March 2023
Orbit: 586 x 632 km, 48.2° (Epoch: 08 June)

Event Time Altitude Azimuth Distance (km) Brightness Sun altitude
Rises 23:02:53 0° 282° (WNW) 2,811 ? -33.0°
Reaches altitude 10° 23:05:12 10° 288° (WNW) 1,913 ? -33.3°
Enters shadow 23:06:37 20° 295° (WNW) 1,398 ? -33.5°
Maximum altitude 23:09:28 51° 4° (N) 746 - -33.8°
Drops below altitude 10° 23:13:48 10° 82° (E) 1,932 - -34.3°
Sets 23:16:09 0° 87° (E) 2,841 - -34.5°
